Theta_e
368 368 368 368 368 369 368 369 368 367 367 366 365 365 366 366 363 365 366 364 364 363 364 365 367 367 365 366 362 363 367 366 366 367 369 368 366 365 364 365 363 360 359 357 356 357 354 350 351 353 353 350 350 349 347 348 350 346 346 345 343 346 345 342 339 338 344 345 340 340 343 344 342 344 344 345 351 350 349 350 350 348 348 347 349
368 369 368 367 366 368 368 369 370 368 367 365 365 365 366 367 366 367 365 366 366 363 366 366 366 367 366 367 367 364 367 368 364 366 367 367 365 364 364 364 364 361 360 359 358 356 356 353 350 351 354 350 350 348 348 346 347 344 344 344 344 345 347 343 340 340 338 344 342 344 342 343 340 348 345 342 344 348 350 350 348 348 347 348 345
366 369 367 366 367 368 368 369 370 369 367 365 365 363 365 368 369 367 365 365 368 366 365 367 369 368 368 368 369 367 368 367 367 366 367 368 365 363 364 364 363 360 359 358 357 358 355 355 352 351 351 350 350 349 347 348 347 345 344 345 346 345 347 347 344 340 338 340 346 344 342 343 341 344 347 347 350 348 346 348 345 346 348 346 345
364 368 368 367 368 368 369 368 368 367 365 365 364 363 363 365 368 368 367 365 365 369 367 368 370 371 367 368 369 369 368 366 367 366 367 368 367 365 364 365 365 362 360 359 358 358 356 355 354 352 351 350 349 349 348 347 348 348 346 347 348 347 348 348 347 344 342 337 343 343 345 342 343 344 346 348 345 345 345 347 346 345 344 347 347
363 366 366 365 365 366 367 367 367 365 364 363 362 362 362 362 365 367 367 365 363 367 369 369 370 371 368 367 368 369 369 368 369 367 367 369 369 367 365 365 365 365 362 361 361 360 359 356 356 355 352 350 350 348 348 349 348 347 346 346 347 347 347 348 348 346 344 341 342 347 347 346 346 346 345 343 345 346 348 347 345 347 348 344 344
361 364 364 363 365 366 368 367 365 365 363 361 361 360 360 361 362 366 367 366 363 362 368 368 368 370 371 369 369 370 372 371 371 369 366 367 368 368 366 365 365 366 364 362 362 361 361 359 357 358 354 350 350 349 350 349 349 347 348 348 348 349 348 347 349 348 345 343 343 342 346 343 345 346 347 345 343 342 344 346 347 347 348 346 344
362 363 364 362 364 366 368 367 365 363 364 362 361 360 359 359 359 361 366 366 364 360 362 368 369 370 372 371 369 370 371 371 371 371 369 368 369 369 366 365 364 366 365 363 362 362 362 361 360 358 357 354 351 351 350 350 348 349 350 349 349 349 347 347 347 346 346 344 343 343 343 345 346 343 346 348 347 345 342 342 344 347 350 348 346
361 363 365 364 366 367 369 369 367 367 365 368 365 362 361 360 362 361 364 366 364 362 359 364 368 369 371 371 371 372 372 371 372 373 372 369 368 369 368 364 363 365 365 365 363 362 363 362 360 359 359 358 354 354 353 350 350 349 349 349 349 348 346 346 346 345 344 342 341 341 341 343 344 345 347 348 345 344 345 343 341 343 346 350 349
363 363 365 366 368 370 371 371 370 369 366 369 367 365 363 364 364 364 365 365 366 364 363 359 366 369 370 372 372 371 370 371 371 372 372 371 369 367 368 365 363 363 364 364 364 362 361 362 362 360 362 355 346 348 347 345 351 349 351 350 350 348 347 346 346 345 344 342 341 342 341 340 342 343 340 343 342 343 346 345 342 343 347 346 352
365 364 364 367 370 372 372 373 372 371 368 369 371 367 363 364 362 362 363 364 367 368 368 364 362 366 369 371 372 371 370 372 360 344 350 371 370 368 368 368 365 363 364 363 362 361 359 359 361 350 347 345 343 339 338 337 340 349 353 352 350 349 347 346 346 345 344 341 339 340 338 338 338 342 340 343 347 347 343 344 341 344 347 345 347
365 364 366 370 371 373 373 373 373 373 371 369 371 371 367 365 366 368 368 366 368 372 368 365 362 362 366 369 370 370 371 369 343 336 339 344 365 369 368 368 368 364 363 364 362 360 359 359 360 357 349 345 349 336 337 333 334 337 343 345 345 351 348 346 346 346 344 342 341 341 339 339 340 342 341 341 343 344 343 344 344 343 342 340 337
362 367 369 371 372 373 372 373 373 373 372 371 372 372 369 368 369 370 367 366 371 368 367 367 368 364 362 367 369 370 371 351 335 334 336 337 344 370 368 367 367 365 363 361 363 361 358 358 358 360 361 360 359 353 343 334 332 333 335 340 340 341 342 349 348 346 346 343 341 341 340 340 341 343 340 340 342 343 346 344 346 344 343 341 340
363 368 368 369 372 373 374 374 373 373 373 372 372 372 372 369 367 367 366 369 369 370 371 368 368 367 365 367 367 369 370 344 332 332 334 334 335 350 367 367 366 365 365 363 362 363 361 358 357 359 358 345 354 359 357 351 332 330 333 336 339 336 334 335 342 351 348 346 343 342 341 343 342 342 342 343 348 344 345 341 343 343 344 342 340
364 365 368 369 371 373 374 373 373 373 374 373 372 372 371 370 367 366 367 369 369 369 368 369 369 370 368 367 369 369 371 343 329 328 330 330 333 342 366 366 366 366 366 365 363 363 362 360 358 357 359 361 361 360 359 356 352 348 347 349 351 347 336 332 332 337 347 347 347 345 347 348 346 347 350 350 345 344 343 343 344 345 344 342 345
366 366 366 369 371 372 373 373 373 373 374 373 372 371 370 371 369 367 366 367 368 369 368 368 369 370 368 366 365 365 369 337 325 325 326 326 329 333 364 363 364 366 366 367 366 364 364 363 361 358 361 363 361 357 359 357 355 352 351 349 349 349 351 348 347 346 348 346 347 348 349 349 350 349 350 352 350 349 347 346 345 344 344 347 349
364 366 367 368 369 372 372 372 372 373 372 372 371 370 370 371 370 369 367 366 368 369 370 369 368 368 368 367 364 365 366 330 323 323 324 324 326 349 364 363 362 364 366 367 367 367 366 364 364 361 362 364 347 335 346 359 356 353 350 350 349 349 349 342 338 340 345 345 346 345 347 346 339 350 351 350 352 351 349 347 351 351 346 342 337
360 366 366 367 368 371 371 371 371 371 371 370 370 369 370 371 371 371 367 365 365 366 368 368 370 368 368 368 367 366 366 339 320 320 322 322 328 356 362 363 363 362 364 366 367 367 367 366 365 363 362 364 344 329 334 341 356 354 352 350 349 349 348 349 335 330 332 329 330 330 322 324 328 328 329 333 350 348 347 343 340 341 339 335 335
362 366 367 368 369 370 371 371 371 370 371 369 369 369 369 370 370 370 367 365 362 364 367 368 369 369 367 367 366 367 367 345 316 318 319 319 332 358 362 362 362 362 362 364 365 367 366 349 360 364 363 364 332 327 329 342 357 355 353 351 349 348 348 348 348 345 328 328 328 323 325 326 327 329 331 331 330 340 346 338 339 336 333 334 332
361 362 367 370 369 369 370 371 370 369 370 369 369 369 368 369 370 370 368 367 365 365 365 366 367 369 368 367 354 362 367 346 315 318 317 317 332 360 362 362 361 361 361 361 363 365 367 355 344 352 357 354 323 325 325 339 357 357 355 352 349 348 348 349 347 346 345 344 343 343 342 336 346 349 346 332 339 347 345 342 339 335 332 331 330
365 366 368 370 371 370 370 372 372 370 369 369 369 369 369 369 369 368 368 367 365 365 363 364 365 367 368 368 367 366 366 369 337 315 315 316 320 357 363 361 359 360 361 360 361 364 364 366 351 330 332 333 321 321 321 328 353 358 356 352 350 347 351 349 349 347 346 344 344 345 345 346 347 347 349 344 343 346 346 342 340 340 335 332 332
367 368 368 368 368 369 369 370 369 368 369 368 368 367 368 367 367 368 366 366 366 366 365 364 363 364 365 367 368 368 367 367 356 313 315 314 317 331 363 363 362 361 361 360 360 360 361 360 362 336 325 326 317 317 318 321 333 357 357 354 354 352 345 349 350 342 348 347 345 344 343 345 345 344 344 345 342 341 341 342 341 339 335 332 330
367 369 369 368 366 367 367 370 370 368 369 370 369 368 369 370 368 368 367 367 368 366 368 366 364 363 364 364 366 368 362 345 372 319 315 313 315 318 353 364 362 362 361 361 360 359 360 361 362 342 323 323 316 314 315 318 324 352 357 334 331 331 351 352 350 347 346 344 342 341 340 340 339 341 339 342 341 338 338 339 340 338 337 335 334
367 369 369 367 367 367 368 368 368 368 368 370 370 368 369 369 369 370 369 367 367 366 366 366 364 361 361 362 363 365 369 366 337 341 314 313 312 314 323 345 338 365 360 358 359 360 361 362 359 335 320 320 314 313 314 316 320 342 329 322 325 327 341 350 350 345 344 343 341 341 340 337 337 337 337 338 340 341 338 339 339 338 338 337 337
370 368 368 366 365 365 366 366 368 369 369 370 369 370 369 369 369 368 369 366 364 363 363 362 362 359 359 358 360 361 368 368 344 330 328 311 312 312 314 321 331 356 362 360 361 361 360 361 355 326 315 314 313 312 314 315 331 325 322 320 324 328 348 349 347 345 342 341 341 339 338 338 337 335 337 338 336 342 340 338 338 337 336 335 337
368 367 366 365 365 363 364 367 368 369 369 369 368 367 369 368 366 368 368 364 362 360 360 360 361 360 359 358 360 361 360 363 363 349 323 315 312 311 313 317 320 323 351 360 359 360 343 332 328 318 313 314 313 313 314 315 319 321 320 318 327 345 348 347 346 344 342 340 339 339 338 339 338 341 341 342 342 343 342 338 335 336 336 338 339
364 364 364 365 364 363 364 365 367 367 366 366 367 367 367 365 363 365 363 362 363 362 360 358 357 358 358 359 361 362 369 366 367 370 332 321 316 313 313 314 317 320 328 350 340 337 332 326 322 315 314 318 324 327 329 327 319 321 320 321 343 345 345 345 345 342 340 339 339 338 338 341 340 341 343 347 343 341 338 336 335 333 332 333 333
362 363 363 362 363 363 361 358 359 364 367 365 365 365 363 363 364 362 362 360 361 359 360 359 358 357 356 357 357 360 363 362 363 362 369 350 340 331 321 323 315 317 329 341 337 346 345 338 338 320 322 319 324 324 327 325 322 326 331 335 344 345 343 344 343 341 339 339 338 338 340 341 340 341 343 342 341 342 339 337 332 332 333 334 332
361 363 363 364 363 364 363 364 364 363 364 363 361 362 362 363 362 361 360 361 359 358 359 357 356 357 356 358 357 357 358 360 361 359 348 346 349 350 341 335 335 333 335 342 348 351 353 336 325 328 329 326 329 332 334 332 328 330 333 338 342 343 341 338 339 343 342 341 340 340 338 339 338 339 339 337 336 337 338 334 333 331 329 331 328
366 365 365 364 364 364 364 363 362 361 361 363 366 364 363 362 374 364 348 341 346 352 360 361 359 355 351 351 352 352 354 355 355 319 325 313 323 333 344 343 340 340 331 327 345 350 352 349 334 332 330 329 331 333 333 331 329 332 334 339 341 342 341 339 339 340 341 339 337 337 336 337 336 335 334 334 335 334 338 336 335 334 330 329 325
363 362 363 361 361 360 362 360 362 360 359 359 360 345 329 317 337 352 341 318 309 310 318 339 335 338 342 346 349 342 339 339 318 306 303 302 301 303 307 309 314 330 327 322 327 345 348 341 337 334 332 333 333 333 332 331 330 330 333 331 338 340 339 338 338 338 338 337 336 335 335 335 333 333 333 332 334 334 333 329 331 332 331 327 324
354 355 354 355 353 358 358 359 361 360 360 357 355 347 344 343 304 309 319 317 305 299 299 300 304 310 328 338 337 324 318 310 303 303 301 301 301 300 299 300 302 303 306 326 333 335 344 341 339 339 335 336 335 335 333 331 330 331 332 334 338 337 334 337 337 335 334 335 335 336 335 333 332 331 332 331 331 331 330 330 331 330 328 326 324
349 348 348 352 353 353 353 353 353 352 352 353 350 343 340 340 346 317 306 313 310 302 299 299 299 301 304 313 322 336 322 312 307 304 303 302 302 301 300 299 298 298 302 304 326 337 338 341 340 340 339 336 335 335 334 332 332 332 333 333 335 336 335 335 334 336 334 334 334 333 334 333 332 330 330 331 329 329 328 328 327 325 325 324 323
349 349 349 348 347 349 347 349 348 348 348 349 349 348 346 345 343 343 345 306 301 303 304 304 306 307 308 304 304 309 307 305 303 302 302 302 301 301 301 299 297 297 298 308 318 328 338 341 342 341 340 336 335 334 333 332 332 333 334 334 334 334 335 335 333 335 333 334 334 333 333 332 330 329 327 327 326 326 327 324 324 325 325 323 323
348 347 347 349 349 349 347 347 347 348 349 349 347 344 344 344 342 343 343 349 350 329 303 300 306 312 315 313 311 307 304 302 304 304 304 304 304 303 302 308 300 297 299 309 315 321 331 339 341 342 341 339 337 334 332 332 332 333 334 334 335 334 334 335 335 333 332 332 333 332 332 331 330 329 328 327 327 327 327 324 324 323 323 322 321
346 345 347 347 348 347 347 347 347 348 349 348 345 344 344 344 345 342 340 338 338 339 341 349 320 311 329 322 313 304 305 305 305 305 305 304 304 302 300 313 318 320 309 307 310 317 323 329 337 340 340 337 335 334 332 332 333 332 333 334 334 333 333 332 333 333 332 333 333 332 331 330 330 327 327 327 326 326 326 324 324 323 323 321 320
346 344 345 345 345 344 344 345 346 345 346 345 345 342 341 341 340 341 337 340 338 338 338 340 342 327 319 315 310 310 306 306 306 306 305 304 303 300 319 321 320 321 320 320 317 316 317 321 328 336 340 338 335 333 332 331 331 332 333 332 331 331 331 331 330 331 332 333 331 330 327 330 330 327 328 327 326 325 324 323 323 323 322 320 320
344 344 344 344 344 342 343 343 344 343 338 340 341 342 341 341 339 339 338 337 336 337 337 340 340 339 333 339 325 314 311 309 308 306 306 309 307 316 324 322 321 320 320 321 321 321 320 320 323 331 336 334 332 332 332 331 331 332 327 331 331 331 331 331 332 331 331 330 329 329 328 328 329 328 326 325 324 323 323 323 322 322 321 320 318
343 342 343 344 343 342 342 341 342 338 340 340 342 341 339 341 340 337 337 337 334 334 335 336 332 335 334 335 333 331 330 318 315 316 318 317 328 334 332 331 326 323 323 325 325 323 322 322 324 330 331 331 330 331 331 331 331 331 330 331 331 331 326 329 328 331 330 330 329 329 328 328 328 328 325 325 324 323 322 321 321 320 320 319 318
342 333 330 332 335 342 341 340 340 339 339 338 339 338 336 338 336 336 336 334 334 334 334 335 335 333 334 334 333 331 330 336 333 331 331 333 335 334 334 333 333 332 331 331 329 328 330 329 330 332 331 331 330 330 330 330 330 330 331 331 331 329 329 330 330 330 329 328 328 329 328 328 328 327 327 326 324 324 322 322 320 320 319 318 318
341 342 336 332 339 337 338 340 338 337 337 337 337 337 337 336 336 337 335 334 334 335 335 334 332 335 335 333 330 330 333 333 332 330 329 330 332 334 335 334 334 334 333 333 331 330 330 329 329 329 330 330 330 330 330 330 330 330 330 329 329 329 330 329 329 328 328 328 328 328 328 328 328 328 326 325 324 325 325 322 320 320 320 319 318
336 337 339 333 333 337 338 336 337 337 338 337 336 336 335 335 337 335 335 333 335 335 335 335 334 336 333 323 309 308 332 334 332 330 329 328 330 332 334 334 333 333 332 333 332 330 329 329 329 329 329 329 330 329 330 330 329 329 328 327 328 328 329 329 329 329 329 329 329 329 329 329 328 327 325 325 320 323 323 322 321 319 319 318 318
338 336 337 337 336 337 336 335 336 335 339 338 336 335 336 334 334 334 333 334 333 333 334 333 336 338 323 306 313 304 331 334 333 331 331 330 330 329 331 333 335 333 332 332 334 331 329 329 329 329 329 329 329 329 329 329 328 328 328 328 328 328 328 329 329 330 330 331 331 330 330 329 328 327 326 318 323 323 322 320 320 320 319 318 316
339 337 337 336 336 336 335 334 335 334 334 334 334 334 334 333 334 335 334 333 332 332 332 333 333 335 334 321 323 318 333 333 332 332 331 331 331 330 331 331 332 333 333 334 335 335 332 329 328 329 329 329 329 329 329 329 329 329 329 328 328 329 329 329 330 330 330 330 330 328 329 327 327 327 325 325 322 321 321 321 320 319 318 317 315
337 336 337 336 337 336 335 335 334 333 333 334 333 332 332 333 333 334 333 333 333 333 333 333 332 333 335 336 331 331 333 331 331 332 332 331 331 331 332 332 334 334 334 334 334 335 334 331 329 329 330 330 331 331 331 331 331 330 329 329 328 328 329 329 330 330 330 329 328 328 328 327 327 326 325 322 322 321 320 320 319 317 316 315 314
337 336 335 335 335 335 335 336 334 334 332 334 335 333 333 332 333 332 331 331 334 334 334 332 332 333 332 335 334 333 333 333 332 330 331 331 331 330 330 333 334 335 335 335 336 336 335 333 332 331 330 330 331 331 332 332 333 333 332 331 329 328 329 330 331 331 331 329 327 327 327 325 326 324 322 322 321 320 318 319 318 315 314 314 313
334 333 332 333 331 332 333 333 334 333 332 332 331 332 332 332 333 332 332 331 332 331 331 332 333 332 332 333 334 332 333 333 332 331 330 331 330 333 335 336 334 333 333 333 334 335 335 334 333 332 331 330 330 330 331 332 332 333 334 333 331 331 331 331 331 330 329 329 327 325 325 324 323 322 324 321 320 318 318 318 317 315 314 313 313
333 331 329 330 329 329 329 331 330 330 330 328 329 327 327 328 328 328 327 328 330 331 331 332 331 331 332 332 332 333 333 332 332 331 331 331 331 331 331 332 332 332 331 332 333 332 331 331 331 330 329 329 330 330 329 329 329 328 329 328 329 329 327 327 328 328 327 327 325 324 323 322 321 320 319 319 318 317 317 316 316 316 315 313 313
329 328 327 328 328 328 328 328 327 328 327 327 326 325 324 325 325 324 325 325 325 325 327 328 330 330 329 331 332 333 333 333 332 332 333 332 332 332 332 333 333 332 333 332 333 332 331 330 330 329 328 328 327 326 326 327 326 325 325 323 324 324 319 317 327 328 326 326 324 324 323 322 321 320 319 318 317 317 316 315 316 315 315 314 313
325 325 325 326 325 326 325 325 325 325 325 326 324 323 322 322 321 322 321 322 322 322 323 324 325 326 326 326 328 331 332 330 331 331 331 331 331 332 332 332 333 333 333 332 331 331 331 330 329 328 326 326 326 324 324 324 324 321 321 318 311 301 300 306 316 325 317 323 322 322 322 321 320 319 318 318 317 317 316 317 316 314 314 314 313
322 322 322 322 322 323 324 324 323 323 323 323 322 321 320 320 319 317 317 318 318 318 318 319 319 319 320 320 321 321 322 325 328 328 328 329 329 329 330 329 329 330 331 331 330 330 331 329 328 327 326 326 324 325 323 322 321 319 317 312 297 296 296 295 295 299 321 324 322 322 321 321 321 319 318 318 318 317 316 315 315 314 313 313 312
320 319 319 320 319 319 319 319 320 320 320 320 320 319 318 317 315 314 313 313 313 314 314 314 314 314 315 316 316 317 318 320 320 322 322 323 326 329 330 330 328 329 330 330 330 328 328 327 325 323 323 324 322 322 323 322 320 316 304 298 297 298 299 304 314 296 297 304 321 319 319 318 319 318 317 317 317 316 315 315 314 313 312 312 311
Wind_Speed
21 19 18 18 18 19 19 18 19 17 17 17 16 15 14 14 14 13 12 13 12 13 13 13 13 13 14 13 14 12 12 12 11 11 11 11 10 11 11 12 12 11 10 11 11 10 10 10 10 10 9 8 8 8 8 8 8 7 7 7 7 7 7 7 7 7 4 4 5 5 6 6 7 7 6 6 6 6 6 6 6 6 6 7 7
20 19 18 18 20 20 20 18 18 17 18 17 17 16 15 14 14 13 14 13 13 14 14 14 13 14 14 13 13 13 12 12 13 12 12 12 13 10 11 12 13 12 11 12 12 10 10 11 11 11 10 10 9 9 8 9 9 9 8 8 8 8 8 7 8 7 7 6 6 5 4 6 6 7 7 7 7 6 7 5 6 6 6 5 6
21 19 18 18 20 19 19 19 18 19 20 18 19 18 16 16 14 14 14 14 14 13 14 14 13 13 13 12 12 12 12 13 12 12 13 14 14 13 12 13 14 14 14 13 13 12 12 11 12 11 10 11 11 10 10 9 9 10 10 9 8 9 9 9 7 8 8 7 6 6 6 6 7 6 7 6 5 5 5 6 6 6 6 6 5
21 20 19 20 21 20 19 18 20 20 20 18 20 19 18 16 15 15 16 14 14 13 14 14 14 13 14 13 13 13 13 13 13 13 14 14 14 14 13 13 14 14 14 14 14 13 13 12 12 13 12 12 12 10 10 10 9 9 9 9 9 9 8 9 9 7 7 8 7 7 6 7 7 7 6 6 7 7 6 6 7 7 6 5 5
21 21 21 22 22 20 21 20 20 21 21 19 21 20 20 18 16 17 16 16 16 14 13 14 13 14 14 14 14 14 14 14 14 15 14 14 15 14 14 14 14 15 15 14 14 14 14 14 13 13 13 12 12 12 11 12 10 10 10 9 9 9 8 8 9 8 8 8 7 6 6 6 6 7 7 7 7 7 6 7 7 7 7 7 6
22 21 21 21 20 22 21 20 21 22 22 21 21 21 19 18 17 16 17 17 16 16 15 14 14 15 15 14 14 15 14 14 15 15 16 15 15 15 14 14 14 15 15 15 15 14 14 15 14 14 14 14 13 13 12 14 12 11 11 10 10 9 9 9 8 9 9 8 7 7 7 7 7 7 7 8 7 7 7 7 8 7 6 7 7
19 21 21 21 20 21 21 20 20 21 20 20 18 19 19 19 19 18 17 17 17 17 17 16 15 15 15 15 15 15 15 15 15 15 15 15 15 15 15 15 14 14 15 16 16 16 16 15 15 15 15 15 15 14 14 14 13 13 12 11 11 10 10 9 9 10 9 9 8 8 7 8 8 8 8 8 8 7 7 7 8 7 7 7 7
20 20 19 19 19 20 19 19 20 19 18 17 17 18 18 18 17 16 16 17 18 18 18 18 16 16 16 16 15 15 15 15 15 15 15 15 15 15 15 14 15 15 15 16 16 16 16 17 17 17 17 16 16 15 14 14 12 13 12 11 11 11 11 10 10 10 10 10 9 9 9 8 8 8 7 7 8 8 7 7 8 7 7 7 7
19 19 19 18 18 18 17 17 17 17 17 16 17 17 17 16 15 16 16 16 15 17 18 18 17 16 16 16 16 15 15 15 14 15 15 16 15 15 15 15 15 15 15 16 16 16 16 16 17 17 17 17 19 16 16 14 13 13 12 12 12 12 11 10 10 10 10 10 9 8 9 9 8 8 9 8 10 9 8 8 8 7 6 7 5
16 18 18 17 16 16 17 16 16 16 17 17 17 17 17 17 18 17 17 17 15 15 15 16 18 18 17 17 16 15 14 13 15 19 16 14 15 14 14 15 15 15 15 15 16 17 18 16 16 19 18 19 18 19 18 17 17 14 12 12 13 12 12 11 11 10 10 10 10 10 10 10 10 9 9 10 9 8 9 8 9 8 6 6 4
16 17 17 15 15 16 16 16 16 17 17 17 16 16 17 16 15 15 15 16 15 14 15 17 17 17 18 17 17 15 14 13 18 19 20 19 16 15 15 14 15 16 16 15 16 16 16 17 16 16 17 16 18 20 18 18 18 17 15 15 13 13 13 13 11 11 11 10 10 10 10 10 10 10 10 10 10 9 9 8 8 7 7 7 7
18 16 15 14 15 16 15 16 16 16 16 17 16 16 16 15 14 15 15 17 14 15 16 16 15 16 16 18 18 16 15 16 19 21 21 21 18 15 15 14 14 15 16 16 15 15 16 16 16 13 15 18 17 16 18 19 18 18 16 14 15 15 14 12 11 11 11 11 11 11 10 10 9 9 9 10 9 9 9 7 7 7 7 7 7
16 15 14 15 15 15 14 15 15 15 16 16 14 14 15 16 16 16 17 16 15 15 15 15 16 16 16 16 18 17 16 17 20 22 23 23 22 19 14 15 15 15 16 17 16 15 14 14 15 13 13 19 16 16 14 15 16 20 18 15 14 15 14 13 10 10 10 11 11 11 11 9 10 9 9 9 7 8 7 6 7 8 7 7 6
15 16 15 15 15 15 15 15 15 15 14 14 15 15 16 16 17 16 15 15 15 15 16 16 15 15 15 15 15 16 16 15 20 22 23 24 24 20 16 16 16 16 16 16 15 16 16 15 14 14 14 12 14 16 15 15 13 12 13 11 11 12 13 15 13 12 10 10 11 11 9 9 8 7 8 7 8 8 8 7 5 5 6 7 6
13 15 16 16 16 16 16 16 15 15 15 15 15 16 16 15 16 15 15 16 15 15 16 16 15 15 16 16 15 15 15 16 21 22 23 24 23 20 17 17 16 15 16 16 16 17 17 16 16 15 14 13 13 17 15 16 15 14 14 15 16 16 14 15 15 14 12 13 11 12 10 9 9 8 6 6 8 8 8 7 8 9 8 6 5
14 15 16 17 17 17 17 16 15 15 15 16 16 17 16 16 16 14 13 14 14 14 14 15 16 16 16 16 17 17 16 17 21 23 24 23 24 15 15 17 16 15 15 16 16 15 16 17 16 16 14 14 14 21 18 15 16 17 17 16 16 16 15 15 16 16 15 15 12 12 10 10 10 9 6 7 7 7 8 7 6 5 5 6 7
16 15 17 17 17 16 16 16 16 16 16 17 17 17 16 15 14 13 14 14 14 14 14 15 13 15 17 16 17 16 16 15 21 23 24 25 20 14 15 16 16 16 15 16 16 17 17 17 16 15 15 15 16 23 22 20 17 18 17 17 15 15 15 13 17 18 17 14 12 9 5 5 5 10 11 6 3 6 7 7 8 7 6 7 7
16 15 16 16 16 15 15 16 16 16 16 18 17 16 15 13 14 13 14 15 15 15 14 13 14 15 17 18 18 17 16 14 22 23 25 25 22 15 14 16 17 16 16 16 15 15 17 19 17 17 16 16 19 25 25 22 18 18 17 16 17 16 15 14 11 12 16 15 8 8 8 9 8 9 11 10 7 5 8 8 8 7 8 8 7
15 16 15 15 15 15 15 15 16 17 17 16 15 15 15 14 13 13 14 14 14 13 13 13 14 14 16 18 17 18 18 15 21 23 25 25 22 14 15 15 16 16 16 16 16 14 15 14 19 18 18 17 20 25 26 23 18 17 17 17 17 17 16 15 15 15 13 12 8 7 6 8 8 8 7 10 10 9 10 10 8 7 8 7 7
13 13 13 13 13 13 13 14 15 15 15 14 13 13 13 13 14 14 14 13 13 14 14 13 14 14 14 16 14 17 19 14 16 23 23 24 27 16 14 14 17 18 17 15 14 15 15 15 15 22 21 20 20 25 25 26 19 16 16 16 17 19 15 16 16 14 14 15 14 13 12 10 10 9 9 8 8 10 11 10 8 6 6 6 7
12 13 12 13 14 14 13 14 15 14 14 14 13 13 13 13 13 13 14 12 12 12 13 13 14 14 14 14 15 17 16 17 13 23 24 26 27 24 14 17 17 15 15 14 15 15 16 19 14 20 25 22 20 25 26 26 22 16 16 16 16 14 14 15 15 16 15 14 14 13 14 12 12 11 10 9 9 10 10 11 10 8 8 8 8
11 12 13 13 14 14 14 12 13 12 12 12 12 12 11 11 11 12 11 11 12 12 12 12 12 12 12 14 14 15 14 15 11 18 23 24 24 29 16 16 15 13 14 13 15 16 17 16 16 18 25 24 20 23 25 25 26 16 17 15 14 16 17 13 12 11 12 12 13 12 14 14 14 12 12 11 10 11 11 11 11 10 8 9 7
11 11 12 12 12 12 12 12 11 10 11 11 11 11 10 11 10 10 10 10 11 12 12 12 11 12 12 12 13 13 13 11 14 12 20 23 24 25 27 19 17 14 16 18 18 16 14 14 15 17 22 25 21 22 23 26 22 16 16 15 18 20 17 13 11 13 12 12 11 11 11 13 13 12 13 11 11 11 11 11 11 9 10 7 6
10 10 10 11 11 11 11 11 11 10 10 10 11 10 10 10 10 9 9 10 10 11 12 12 11 12 13 13 13 13 10 12 12 16 17 25 23 26 26 26 19 15 16 17 16 16 17 15 14 13 20 23 23 22 23 22 20 24 18 18 19 19 14 13 8 11 12 12 11 11 12 11 11 11 10 8 10 10 12 11 11 14 8 6 5
9 9 10 10 10 10 10 9 10 9 9 10 10 10 10 10 10 9 9 10 11 11 10 10 10 11 12 12 11 12 13 12 13 13 21 22 25 26 27 28 25 20 15 16 16 16 16 15 15 11 18 20 22 21 19 23 25 23 20 17 17 11 11 13 10 11 12 12 11 11 11 9 9 6 7 9 7 8 9 8 10 5 5 7 4
8 9 9 9 10 10 10 10 10 10 9 9 9 8 9 9 9 9 9 9 10 10 10 10 10 11 11 12 10 10 8 8 8 8 9 15 18 23 25 26 28 27 23 19 23 23 20 16 11 10 16 17 14 11 8 13 21 21 20 16 12 13 13 12 10 13 12 12 11 11 10 9 7 6 8 5 5 7 7 7 6 5 5 6 5
7 7 8 8 8 8 9 9 9 9 8 7 8 8 8 8 7 8 9 10 9 9 10 10 10 10 11 11 10 9 8 9 8 10 5 5 7 11 14 16 23 24 20 18 20 16 17 16 8 12 13 20 22 22 22 19 16 15 11 10 12 14 13 13 12 13 13 12 11 10 9 9 8 8 5 5 5 5 7 6 7 5 4 4 6
8 7 8 7 7 7 8 8 9 8 9 8 8 7 8 7 7 7 8 8 9 10 10 9 8 9 8 9 10 10 11 10 10 6 8 7 6 4 6 9 10 12 14 15 14 17 16 16 10 9 10 11 14 12 13 13 15 14 9 12 14 15 15 16 12 12 12 11 10 9 8 8 8 7 5 6 7 5 6 6 5 5 6 5 6
8 9 7 7 6 7 7 7 7 8 8 7 5 7 4 1 1 3 9 8 7 5 3 3 4 5 5 6 6 7 7 9 7 7 9 3 3 7 6 7 9 10 15 20 15 15 15 9 7 9 12 15 15 15 15 14 10 14 12 14 14 14 14 14 13 13 12 11 12 12 12 10 11 10 8 8 7 7 5 5 6 5 7 7 8
9 8 7 7 8 8 7 7 5 5 6 6 8 8 10 13 10 7 7 10 14 13 9 5 4 4 4 3 3 3 5 6 11 16 15 16 10 6 10 15 16 14 16 20 19 15 12 11 15 16 16 14 15 17 17 17 16 16 14 18 15 14 14 14 13 14 13 13 12 12 12 10 11 11 10 10 8 6 8 8 7 6 6 6 7
7 7 6 6 6 5 6 5 4 4 5 7 5 7 7 9 12 16 14 11 12 12 13 11 7 5 4 4 4 1 4 7 10 12 15 15 16 15 12 11 15 18 21 15 14 16 15 15 17 17 17 19 19 19 18 18 16 17 17 17 16 14 14 12 13 13 14 13 12 11 11 11 11 11 10 10 9 8 8 8 6 6 5 6 7
8 7 7 6 6 7 6 6 7 6 5 5 6 5 5 7 7 7 10 12 12 13 12 11 10 9 6 4 4 8 13 17 19 20 20 19 20 21 20 17 15 16 18 16 15 17 19 20 19 20 19 19 20 19 18 18 17 19 20 19 19 17 18 16 15 14 14 14 13 12 12 12 12 11 11 9 9 9 8 8 7 7 7 8 8
10 10 9 9 9 9 8 7 7 7 7 6 5 3 4 5 6 6 5 7 9 9 10 8 7 6 3 4 5 4 9 13 17 19 20 21 21 20 20 21 19 16 12 13 16 19 20 21 22 21 21 22 22 21 21 20 20 19 20 21 20 17 16 15 15 14 13 13 13 12 12 11 11 12 10 10 10 11 10 10 9 9 9 9 8
11 10 10 10 9 8 7 7 7 7 6 6 5 5 5 5 5 4 4 5 2 3 2 2 2 5 4 3 5 7 9 11 14 17 19 21 22 22 21 19 18 14 13 14 14 15 17 20 21 22 22 22 21 21 22 22 23 21 19 20 20 19 19 18 16 14 12 12 11 10 11 12 10 12 12 10 10 9 9 10 10 10 9 10 8
10 11 12 9 7 8 7 7 7 6 6 5 5 6 6 4 4 5 4 4 4 3 2 0 4 6 3 7 9 11 14 16 17 19 21 20 20 20 15 13 15 8 7 13 14 13 16 21 21 20 20 20 20 20 21 22 20 20 20 19 20 19 19 18 17 15 14 13 11 10 11 11 11 11 11 10 11 9 9 11 10 10 9 8 7
9 8 8 9 8 8 8 8 7 6 5 5 5 6 5 5 5 5 4 5 5 4 3 3 6 6 7 5 10 14 14 15 18 20 20 19 17 9 8 9 10 10 11 11 13 14 16 18 21 21 18 16 14 11 7 8 9 10 16 21 19 18 16 14 11 11 11 10 9 10 11 10 10 10 10 9 12 11 9 9 11 11 7 7 7
8 8 8 7 8 8 8 8 7 6 6 6 6 5 6 6 5 4 5 5 4 4 4 5 6 6 6 7 11 14 15 16 18 17 17 17 17 4 5 9 10 12 13 13 13 12 14 15 17 17 13 11 9 11 15 14 14 14 7 5 13 18 17 17 16 13 13 11 10 12 11 11 11 11 11 11 10 11 10 10 9 5 6 7 7
8 8 7 8 9 8 7 7 6 4 5 6 6 5 5 4 4 4 4 5 4 4 5 5 6 6 8 9 12 10 12 13 13 12 13 15 16 13 11 8 9 10 13 13 13 12 11 15 15 14 8 7 10 14 10 13 16 15 15 16 14 14 19 16 15 14 13 11 10 9 10 10 10 10 9 11 10 8 9 9 7 7 6 7 7
9 5 3 5 7 7 7 7 7 6 6 6 6 5 5 4 5 4 4 4 4 4 4 5 5 6 7 9 10 12 12 9 11 12 13 13 13 11 10 7 5 5 8 10 8 1 5 7 6 13 11 11 15 14 14 11 9 11 13 12 13 14 15 12 12 11 12 11 10 10 10 9 9 9 8 8 9 11 11 9 7 6 7 8 8
8 7 4 6 8 8 8 8 7 7 7 6 6 6 6 5 4 4 5 4 4 4 4 5 6 6 6 8 9 8 10 9 10 10 11 12 12 10 8 9 9 8 9 11 9 10 9 10 18 11 10 13 11 12 13 16 15 12 10 10 12 13 12 12 11 11 11 10 9 9 9 9 8 8 8 7 9 8 7 8 6 6 6 8 8
8 8 8 8 7 8 8 8 8 7 6 6 5 5 6 5 4 4 4 4 4 4 4 5 4 4 4 3 4 7 7 8 8 9 9 11 11 11 11 11 10 9 9 9 9 8 8 12 16 17 16 15 13 12 14 15 14 11 10 10 10 10 10 10 10 9 9 9 8 8 8 8 8 8 9 10 6 5 5 5 6 6 7 6 5
7 7 7 8 8 8 7 7 7 6 5 5 6 5 5 4 5 4 4 4 4 4 5 5 4 5 5 4 5 10 6 6 6 8 9 9 9 10 10 11 10 10 8 8 7 6 8 11 14 14 13 14 13 12 11 11 11 11 11 11 11 11 10 9 8 8 8 7 8 8 7 7 8 9 9 9 8 7 6 7 6 8 8 7 8
8 8 8 7 7 7 7 7 5 5 5 6 5 4 4 4 4 4 4 4 4 4 4 5 5 6 4 4 4 6 6 6 6 7 8 8 9 9 9 9 9 9 9 8 8 7 9 10 10 10 11 12 12 10 10 10 10 10 10 10 10 10 9 8 7 8 8 8 7 8 8 9 8 8 6 5 8 9 8 6 8 7 5 7 9
7 7 7 7 7 7 7 7 7 7 7 6 4 4 4 4 4 4 4 4 5 5 5 5 6 6 6 1 2 7 7 7 6 6 6 7 8 9 8 8 7 8 9 9 10 9 8 9 10 10 10 10 9 10 9 9 9 9 9 9 9 8 8 9 8 8 8 8 8 8 8 8 7 8 8 8 7 5 6 8 5 6 8 8 8
7 7 7 7 8 8 9 8 8 7 7 6 6 7 8 8 9 8 7 6 6 6 5 5 6 6 5 6 6 6 6 6 6 6 6 7 8 8 8 8 7 8 8 9 9 9 8 9 9 9 10 9 9 9 8 7 7 7 7 8 7 7 7 7 8 7 7 8 8 8 8 8 9 9 7 6 5 7 4 4 6 8 9 8 9
7 8 8 8 8 9 9 9 9 9 8 8 8 8 8 8 8 8 9 8 9 9 9 8 6 6 7 7 7 6 5 6 6 6 6 7 7 5 3 2 5 6 6 7 7 8 8 7 8 9 9 9 9 8 8 7 7 7 6 6 6 5 5 6 6 7 7 8 9 9 9 10 8 6 5 7 7 6 6 8 8 8 8 9 8
8 8 8 8 8 9 9 9 9 8 8 8 8 8 7 8 8 8 8 9 9 9 8 8 8 8 7 6 7 7 7 6 6 5 6 6 6 5 4 4 5 6 6 6 6 6 7 8 8 8 9 8 8 8 7 7 7 6 6 5 5 6 6 5 4 4 5 4 5 4 3 3 4 6 7 5 3 6 7 8 7 8 8 8 8
8 8 8 9 9 9 9 9 9 9 8 8 8 9 9 9 8 9 9 9 10 9 9 8 9 8 8 7 7 7 7 7 5 5 6 6 6 7 7 6 6 5 6 6 6 6 7 7 8 9 9 8 8 8 7 7 7 8 8 8 7 9 9 8 5 4 4 4 5 5 7 6 6 5 6 8 7 8 8 8 8 8 8 8 7
9 9 10 10 10 10 10 9 9 8 8 8 8 9 9 9 10 9 9 9 9 9 9 9 8 9 9 10 10 7 6 5 6 7 7 7 7 7 7 7 6 5 6 6 6 7 7 7 8 8 9 9 8 8 9 9 10 9 8 7 12 20 18 16 9 7 6 5 4 4 5 6 6 6 7 8 8 7 7 8 8 8 8 8 7
12 12 12 11 11 10 10 9 9 9 8 9 9 9 10 10 10 10 10 10 10 10 10 10 10 10 9 10 9 10 10 10 9 9 9 8 6 7 7 8 9 9 5 5 6 6 7 8 8 8 8 8 8 8 8 9 10 9 8 9 15 17 15 14 13 12 7 3 3 2 3 4 5 7 8 6 6 8 8 8 8 8 8 7 7
12 12 12 12 12 11 11 11 10 10 10 10 10 10 10 10 10 10 10 10 10 9 9 9 9 10 11 10 10 10 11 11 11 11 10 10 9 5 4 4 6 7 8 6 6 6 6 7 8 8 7 7 7 6 7 10 9 8 11 15 15 13 13 10 7 8 11 8 1 2 2 2 4 6 5 6 7 7 7 8 8 8 7 7 6
Wind_Direction
185 187 187 190 189 189 191 193 196 198 199 201 205 207 209 210 212 213 208 212 209 206 206 208 206 206 209 207 207 203 200 200 199 195 198 197 201 206 206 194 203 209 207 208 207 212 208 212 215 210 212 213 214 215 208 201 205 211 208 205 210 205 209 215 224 234 222 221 251 228 209 217 195 206 225 212 164 182 211 231 228 228 226 237 220
188 186 187 189 190 191 192 192 194 196 198 200 203 206 206 207 208 209 211 208 210 209 204 207 207 205 210 207 206 205 199 198 200 197 198 197 199 200 208 197 201 204 203 211 207 211 206 208 213 211 208 214 213 216 215 204 204 208 205 209 207 204 203 208 218 225 230 205 224 239 248 193 244 179 209 218 226 201 201 209 215 228 242 243 257
188 185 186 187 190 190 191 192 191 195 197 198 202 204 205 206 203 207 210 209 205 210 206 207 204 205 206 206 203 205 201 200 203 203 201 200 199 201 204 202 202 202 204 209 210 208 211 206 210 209 205 210 212 214 217 215 207 209 209 208 209 209 199 207 212 221 228 230 210 219 225 219 218 214 210 224 236 237 228 219 230 228 226 242 248
186 185 185 188 188 188 191 192 193 195 198 200 203 206 206 205 203 205 206 210 206 204 209 206 204 203 205 204 201 202 202 202 204 207 205 204 202 203 202 203 203 203 204 207 209 208 209 207 209 209 206 206 208 210 214 215 212 209 212 208 210 212 208 195 212 225 225 232 221 224 210 219 215 235 224 212 224 220 226 233 239 257 254 229 225
188 187 188 189 189 190 191 193 195 198 200 202 206 207 208 208 204 205 205 209 210 203 204 206 205 203 204 202 201 201 202 203 202 207 208 208 208 206 205 203 204 204 206 207 207 207 207 208 206 208 207 206 205 208 210 211 211 210 210 209 208 209 211 205 202 213 228 229 231 211 229 225 220 220 223 219 212 225 219 232 232 230 233 242 250
188 187 189 190 189 190 192 194 197 199 202 205 207 208 209 210 208 204 206 208 209 209 202 204 204 203 203 202 201 200 201 202 203 205 208 208 209 210 207 206 204 204 207 209 208 208 208 207 207 207 208 208 206 206 208 208 209 211 209 209 207 204 209 210 209 205 215 229 230 231 204 233 223 226 215 224 225 212 221 224 229 234 230 232 239
188 187 189 190 189 190 191 193 196 200 201 205 206 207 209 210 210 208 204 208 207 210 206 203 202 202 201 201 201 201 201 203 203 204 207 208 207 210 212 208 207 206 207 209 210 210 210 208 207 208 209 209 208 204 203 206 208 209 209 208 206 206 205 211 207 208 210 215 222 231 234 212 223 224 221 222 227 233 223 223 228 221 221 226 237
188 187 188 189 189 191 191 192 195 198 200 200 203 206 208 209 208 209 205 205 209 209 211 204 202 202 201 202 202 201 202 204 203 203 204 206 206 208 212 212 209 209 209 210 212 214 212 212 211 209 208 208 207 205 202 203 203 208 207 206 206 206 209 208 207 208 209 213 217 216 220 235 209 227 219 212 220 225 228 226 227 224 219 222 229
188 188 188 190 189 188 188 191 195 197 198 197 201 203 206 206 206 207 208 208 208 210 211 211 203 202 202 201 201 202 204 204 204 202 203 204 206 207 209 213 213 212 211 211 213 216 217 214 215 213 206 206 202 202 202 198 200 203 203 203 204 206 208 207 207 207 209 213 214 217 224 220 223 211 215 208 213 218 213 222 231 231 227 217 200
187 189 190 192 187 184 186 187 190 193 195 197 198 200 202 204 206 207 209 210 208 208 211 212 210 204 202 202 202 203 206 206 200 195 196 202 203 207 207 210 214 214 213 214 215 215 219 220 216 210 204 201 198 199 198 196 201 203 200 199 200 203 204 207 206 207 210 211 215 212 215 222 220 216 219 216 217 221 225 219 227 222 219 235 210
189 192 193 189 185 185 185 188 188 190 194 195 196 197 200 202 203 204 208 209 210 205 209 212 214 211 204 203 204 206 206 207 189 188 192 195 202 206 206 208 211 215 216 215 216 216 218 219 224 202 201 196 197 195 197 197 195 205 203 200 199 200 201 205 208 208 206 213 213 217 218 218 219 216 215 222 216 221 223 223 231 228 232 230 235
192 193 191 186 186 186 188 188 188 190 190 195 194 194 197 200 203 203 206 209 207 211 210 211 213 215 209 206 207 208 210 201 183 186 189 192 196 204 209 210 210 214 217 218 218 218 218 219 219 219 202 203 198 193 196 195 195 201 205 202 199 203 209 204 204 207 209 211 215 218 220 219 219 218 222 220 217 214 220 220 225 238 225 229 245
188 190 192 189 188 186 187 188 189 189 191 191 192 192 194 198 201 203 205 204 205 208 210 208 211 214 215 210 211 211 215 196 183 185 189 192 195 201 212 212 213 215 215 216 219 218 218 217 220 217 218 194 198 196 190 193 196 197 203 205 203 201 206 219 221 217 209 216 218 220 221 221 219 219 222 230 210 219 203 223 220 228 231 242 243
188 188 189 192 188 187 187 189 190 191 189 188 191 193 196 199 201 202 203 203 206 208 210 211 211 212 216 217 215 217 217 193 183 185 190 192 195 198 212 213 217 218 217 216 217 218 216 217 217 216 219 195 191 198 192 193 189 196 203 205 206 205 208 212 218 227 239 223 218 226 222 221 229 224 211 218 214 218 212 212 232 261 243 236 234
187 186 190 191 188 187 188 189 189 188 187 187 191 196 199 200 201 203 203 204 204 206 208 211 213 213 214 219 222 222 224 190 182 185 189 192 196 199 211 217 219 220 219 218 218 217 216 217 216 216 212 207 187 191 191 193 191 196 200 205 210 212 207 210 212 214 216 223 224 223 229 224 228 229 219 203 212 214 225 228 215 217 224 218 217
192 187 191 190 190 188 187 187 187 186 187 189 193 198 200 200 200 201 207 208 209 209 212 215 215 216 217 219 222 223 223 187 183 184 188 191 192 198 209 218 223 223 221 220 218 218 218 216 216 214 210 210 183 179 184 187 192 196 200 205 209 212 215 211 210 212 217 218 224 229 230 230 220 227 204 200 217 220 227 223 218 212 220 231 240
197 189 192 192 192 190 189 187 188 188 190 192 197 199 199 200 200 199 206 212 210 212 213 214 218 219 218 219 222 225 228 188 183 186 188 189 186 200 205 213 222 225 227 222 220 220 217 213 215 212 210 212 178 178 177 179 193 194 197 200 203 207 214 205 199 205 214 223 227 230 61 83 157 141 126 128 213 231 215 224 222 220 217 229 236
195 191 193 193 192 191 191 191 190 191 191 195 198 199 199 200 202 200 206 210 215 216 213 216 217 219 221 222 219 223 228 188 185 187 191 187 187 196 202 210 217 220 226 226 226 224 220 209 206 214 212 212 178 178 178 179 191 193 194 195 198 205 208 204 194 197 200 207 174 144 147 132 133 141 150 153 162 203 219 222 225 222 229 232 249
192 193 193 192 194 193 193 193 194 194 195 198 198 197 198 199 201 200 206 210 216 217 217 217 218 219 221 223 219 221 229 211 185 189 191 187 191 198 201 209 216 221 222 224 225 226 225 211 205 208 212 210 174 182 182 182 191 191 195 202 204 202 200 200 210 196 188 191 171 159 151 155 152 168 168 169 169 201 222 232 230 234 240 246 247
188 191 192 192 192 192 193 194 195 196 197 197 198 199 197 199 199 200 205 209 212 216 218 221 222 223 223 225 223 223 229 226 183 192 188 189 193 196 204 205 215 218 219 224 223 226 227 226 205 209 209 208 178 184 185 188 194 193 194 201 206 212 200 203 205 201 180 195 198 191 192 180 187 188 181 183 191 204 216 228 237 243 249 239 242
183 187 191 192 192 191 192 193 194 197 197 197 197 199 199 202 201 202 206 208 211 214 218 223 226 228 229 227 229 227 226 230 192 188 191 192 195 198 205 209 215 215 219 222 225 227 227 228 226 200 205 207 184 188 185 190 196 199 200 206 201 196 195 204 194 198 183 188 201 201 203 204 206 210 208 196 195 202 211 223 229 224 225 230 236
183 185 188 190 191 192 193 191 192 196 197 196 197 200 201 202 204 204 208 208 212 214 215 222 228 234 234 234 239 240 234 222 221 188 194 195 197 203 209 217 215 222 225 230 227 228 223 219 225 200 196 200 188 186 188 188 195 200 206 202 178 167 188 203 189 182 182 180 195 202 204 209 210 209 211 201 199 201 208 210 215 220 215 229 233
178 180 182 188 191 193 192 189 188 193 195 193 194 197 197 201 202 203 207 213 216 220 221 224 228 239 245 247 247 245 245 237 220 186 193 196 199 204 214 218 209 211 227 235 234 231 229 233 230 208 186 196 187 186 188 190 191 203 200 186 173 176 187 199 193 176 175 175 189 192 197 206 206 205 210 203 203 206 206 211 206 207 222 211 223
170 173 177 184 187 191 190 190 189 189 189 190 193 193 195 198 201 203 204 212 219 228 231 232 235 239 244 246 246 250 242 239 218 193 185 196 198 204 211 221 216 215 221 235 237 240 244 238 238 201 184 191 187 184 188 188 194 196 197 187 176 177 190 198 183 175 173 174 181 190 197 198 201 204 204 202 210 193 208 206 207 211 198 182 210
160 169 173 179 182 187 186 187 183 185 183 188 190 196 199 200 207 202 213 222 225 232 231 231 229 236 242 245 251 253 253 248 252 202 190 189 199 202 210 213 222 226 227 235 240 246 250 249 247 194 185 188 186 183 186 192 195 191 192 184 173 175 187 195 178 170 178 177 178 185 189 190 202 199 200 200 203 149 173 209 230 229 187 169 177
163 166 169 172 179 183 182 182 184 184 186 188 189 191 198 201 210 209 213 217 224 228 233 235 238 242 245 248 242 247 248 274 275 261 175 199 202 206 205 208 214 220 224 230 233 234 238 248 253 191 181 178 174 173 186 194 196 191 190 179 181 183 185 188 169 174 176 175 177 183 179 177 182 205 214 194 166 145 170 186 208 213 209 164 162
157 162 162 168 172 184 182 186 182 176 178 178 181 190 199 208 204 212 217 222 221 224 229 231 238 241 249 255 259 263 260 263 265 260 237 169 201 208 215 220 220 221 222 233 235 236 236 239 200 180 174 177 180 186 189 188 189 193 187 190 191 187 184 189 180 172 172 172 174 172 165 160 178 195 161 138 145 135 156 177 206 181 194 160 168
149 154 157 156 161 166 175 161 166 168 180 183 181 185 188 198 207 207 217 224 227 228 229 237 238 240 245 251 262 267 272 272 273 329 5 5 337 298 221 224 224 215 226 229 230 227 228 227 182 164 168 171 190 189 192 181 188 193 191 195 194 189 184 183 172 167 170 172 159 154 143 152 166 156 160 157 169 160 160 181 198 179 188 175 184
138 138 139 135 136 147 153 154 168 167 169 182 93 41 15 155 164 159 53 34 34 23 341 332 322 332 352 358 355 341 329 320 330 350 324 332 261 297 279 215 221 243 237 231 225 224 229 213 147 174 174 187 189 189 188 181 181 189 193 199 194 189 180 182 177 170 166 165 162 162 167 171 161 158 161 162 164 168 153 167 203 204 189 196 195
117 113 114 127 140 145 151 163 167 158 150 155 113 75 49 59 53 56 73 70 70 56 50 54 21 359 349 357 20 333 319 314 330 330 325 322 321 266 264 284 286 263 240 228 230 237 220 190 204 196 193 192 195 191 190 186 183 184 185 194 194 192 182 179 172 165 166 169 168 168 176 166 153 156 163 165 158 170 156 184 196 213 207 203 208
104 105 116 101 58 86 96 78 122 83 87 78 93 122 119 68 64 80 89 98 95 92 96 107 90 40 32 354 348 237 254 297 316 316 316 312 307 304 291 266 265 275 277 262 228 228 230 218 216 211 202 199 197 197 192 189 183 180 185 185 191 189 179 174 171 164 167 167 168 170 171 161 154 157 162 166 163 160 161 180 185 194 213 208 206
109 110 109 101 77 90 93 88 80 96 88 95 97 107 109 106 89 50 62 81 90 102 108 103 97 94 80 58 2 334 341 339 329 323 316 311 305 303 300 285 269 261 265 267 253 233 222 223 220 216 209 205 201 198 193 188 184 183 181 183 187 183 176 174 170 165 166 167 165 168 172 169 158 155 164 157 156 165 158 173 192 193 207 217 219
112 112 112 108 106 104 108 105 106 103 112 109 101 91 108 119 114 116 57 43 59 65 64 63 60 41 64 148 178 239 280 298 306 304 301 299 297 291 284 281 277 269 260 253 241 242 228 223 222 218 212 208 203 197 189 183 181 184 186 185 181 174 168 162 159 162 164 166 164 168 171 168 158 155 160 155 170 174 170 174 196 206 207 209 213
103 108 108 104 101 94 87 87 82 76 67 70 82 83 65 61 71 60 113 134 105 14 14 10 3 8 320 332 326 315 308 302 304 302 300 300 299 297 294 293 285 260 225 242 241 246 246 239 230 225 220 213 205 195 188 185 182 182 183 181 175 168 163 156 155 156 160 160 166 168 166 167 162 155 162 161 159 175 172 171 196 208 207 212 206
87 76 77 84 86 83 83 79 76 73 67 64 70 82 87 85 81 78 61 46 31 41 72 180 215 194 328 338 352 348 331 321 314 307 304 302 301 301 307 300 298 289 216 226 239 245 240 243 244 236 226 217 207 198 192 183 178 177 177 178 172 164 155 152 152 152 154 158 169 169 166 162 156 155 153 156 165 180 180 187 203 208 205 188 192
92 91 87 81 79 78 71 64 61 63 68 71 70 67 59 54 61 71 63 39 28 24 29 3 340 345 352 12 23 341 327 321 314 308 309 305 297 332 321 302 300 296 290 276 252 246 250 252 248 241 231 216 194 185 174 156 150 165 181 170 156 144 138 133 137 145 148 151 148 144 152 152 152 149 150 157 168 182 203 203 210 211 187 181 195
93 89 86 87 88 86 80 80 71 66 56 59 67 75 73 64 54 50 53 47 26 13 360 354 337 340 360 3 2 331 330 316 307 307 312 319 318 289 313 320 315 306 300 289 274 258 252 253 254 259 247 201 167 164 156 153 147 134 131 147 142 137 146 148 150 149 142 142 144 154 158 160 158 158 161 169 171 185 199 211 214 193 179 187 187
83 89 98 99 100 95 96 92 108 136 92 87 67 64 74 81 72 60 52 59 33 3 357 356 352 344 351 347 342 340 322 307 318 334 347 346 357 359 352 334 311 298 298 289 268 270 279 265 257 244 197 151 146 137 141 145 144 145 148 155 150 137 130 134 139 139 140 136 139 149 161 160 157 158 162 167 182 189 204 212 199 183 178 166 184
86 66 18 10 83 102 100 97 85 75 71 69 70 67 56 49 50 46 52 39 17 5 347 349 358 351 350 350 342 332 322 345 355 352 350 352 346 360 11 23 12 337 346 2 9 330 282 338 254 189 164 153 144 138 131 124 118 126 130 133 124 122 123 127 132 138 137 140 143 155 159 159 158 161 167 176 193 188 198 203 195 198 190 194 195
107 107 123 136 100 86 90 86 83 72 56 53 57 51 56 41 37 28 41 30 13 348 344 344 357 345 355 355 350 336 339 348 352 353 353 352 349 357 12 3 354 357 352 357 39 60 34 28 37 24 118 122 115 120 127 127 121 106 103 113 122 126 129 129 132 135 137 139 143 151 161 161 162 150 156 195 216 222 195 176 174 193 209 223 181
99 94 80 62 76 96 85 81 71 70 66 50 42 54 52 40 39 44 33 17 18 358 343 354 343 353 61 28 309 313 312 351 356 360 2 359 358 357 352 354 356 15 16 5 358 13 34 49 67 63 50 57 61 70 77 79 85 95 103 100 103 113 121 124 125 123 129 140 150 157 159 158 162 159 169 198 210 218 189 185 188 193 210 226 197
89 88 80 81 70 72 77 81 92 83 82 79 62 44 37 35 38 31 40 22 14 360 340 338 20 4 96 83 342 320 317 12 3 8 9 8 7 6 2 2 7 4 10 22 10 16 50 58 69 78 76 76 78 74 75 88 100 110 112 114 117 117 120 123 126 129 139 150 158 160 161 166 166 185 188 186 191 207 213 179 195 216 217 196 211
65 68 69 72 66 70 79 79 60 68 68 53 53 37 41 23 29 28 42 30 13 352 353 337 348 359 36 127 353 353 10 15 14 12 15 15 18 18 17 8 5 7 7 19 27 21 36 47 53 67 87 97 102 105 104 105 105 100 104 108 112 112 115 122 136 151 165 167 161 158 166 173 180 200 180 190 226 200 200 214 208 207 179 203 210
72 79 77 71 68 61 45 51 54 47 50 45 40 36 19 31 33 18 21 17 357 359 355 341 343 1 3 51 14 22 22 24 18 20 21 26 31 30 31 28 20 29 33 31 37 32 41 58 63 62 67 73 78 85 92 95 100 107 110 114 116 123 131 143 155 165 172 170 163 164 169 175 180 189 194 195 204 248 203 208 194 205 208 206 207
76 69 71 73 70 69 66 64 57 56 42 40 34 28 24 24 20 16 10 12 7 1 348 351 352 7 2 13 20 25 20 25 43 43 40 37 42 31 26 16 24 37 44 49 44 45 43 49 59 66 71 67 71 75 79 84 88 96 103 109 120 133 139 147 150 163 169 171 169 171 175 186 191 211 188 152 180 222 209 209 207 202 210 213 205
69 70 67 64 63 60 62 61 59 53 43 35 33 34 27 20 17 19 16 13 7 9 5 1 7 11 10 10 17 22 26 31 38 45 44 45 48 43 30 20 32 43 56 58 51 54 58 61 68 74 71 75 78 82 82 86 99 108 119 127 131 138 136 135 148 161 176 186 187 192 182 197 204 179 188 223 175 201 210 207 205 207 206 215 214
61 59 61 65 66 64 58 57 54 54 56 47 44 42 32 26 23 18 18 16 13 8 7 8 12 14 7 8 11 23 26 34 42 44 48 43 38 41 58 46 47 57 63 70 75 77 72 74 80 83 89 92 97 96 101 104 102 103 102 101 100 90 90 94 97 119 124 126 120 128 130 194 207 215 188 239 214 209 214 212 206 202 206 211 216
62 62 58 56 56 55 52 47 50 48 53 57 53 45 40 35 30 27 23 21 19 13 10 8 17 19 14 12 16 28 33 29 38 44 51 47 38 35 28 28 35 51 66 77 82 84 84 86 89 91 93 94 94 93 94 92 85 70 62 54 51 63 67 84 105 104 127 128 139 145 156 181 173 191 182 198 205 194 199 219 222 225 218 215 216
50 56 60 56 55 54 51 51 46 43 43 47 51 50 45 41 36 32 31 27 25 21 17 16 16 16 11 3 358 13 31 36 34 30 32 34 32 33 36 31 28 44 53 66 76 78 80 89 95 96 97 93 88 90 93 88 82 77 71 62 66 69 62 55 62 58 73 127 144 157 161 177 182 178 187 191 198 232 223 218 223 227 223 217 210
54 52 53 54 53 51 54 52 47 41 41 43 47 49 47 42 39 36 33 33 31 26 23 23 21 19 16 11 9 16 14 16 25 34 30 28 37 40 33 24 15 7 32 76 72 81 91 89 93 97 95 93 97 97 97 93 89 87 77 81 83 78 75 66 50 39 43 106 114 168 162 188 190 208 208 208 209 212 224 224 226 225 224 216 211
55 54 54 50 50 50 47 46 48 46 39 39 44 44 44 46 43 36 33 34 32 31 29 28 26 23 20 16 11 17 22 23 21 19 17 12 14 38 63 47 34 17 360 18 72 86 87 92 89 81 78 82 90 102 98 95 92 93 99 100 93 88 76 66 72 60 37 6 63 154 195 223 231 246 232 211 215 206 213 229 225 221 223 220 222